Location: Goodmans Corner
(38.2049°N, 120.9872°W)
Time: 05:56:37
(UTC+00:00)

OTV 5 (USA 277) - Visible Passes

Search period start: 24 April 2019 00:00
Search period end: 04 May 2019 00:00
Orbit: 309 x 326 km, 54.5° (Epoch: 21 April)

Date Brightness Start Highest point End Pass type
(mag) Time Alt. Az. Time Alt. Az. Time Alt. Az.
24 Apr ? 04:27:01 10° WSW 04:29:34 35° NW 04:31:37 14° NNE visible
25 Apr ? 04:42:44 10° WNW 04:44:29 15° NNW 04:46:13 10° N visible
26 Apr ? 03:22:00 10° SW 03:24:43 63° NW 03:27:25 10° NE visible
27 Apr ? 03:37:17 10° W 03:39:31 22° NW 03:41:47 10° NNE visible
28 Apr ? 03:53:41 10° NW 03:54:31 11° NNW 03:55:20 10° NNW visible
